sat.trackr.live / text

‹ back to catalog

ARCTIC WEATHER SATELLITE

NORAD 60543 · 2024-149CD

PAYLOAD ACTIVE UNKNOWN

§ Identity

Operator
Country
NOR
Launch date
2024-08-16
Launch site
AFWTR
Launch vehicle
Mass (kg)
RCS (m²)

External: N2YO · Heavens-Above · Gunter

§ Orbital elements

Epoch: 2026-05-25T04:24:04.067424Z

Period
96.66 min
Inclination
97.6806°
Eccentricity
0.0002652
Mean motion
14.89810920 rev/d
Perigee alt
596.7 km
Apogee alt
600.4 km
Semi-major
6,976.7 km
B*
7.5864e-5
RAAN
216.3055°
Arg perigee
150.2093°
Mean anomaly
209.9276°
Rev number
9,587

§ Raw data

ARCTIC WEATHER SATELLITE1 60543U 24149CD  26145.18338041  .00000674  00000+0  75864-4 0  99942 60543  97.6806 216.3055 0002652 150.2093 209.9276 14.89810920 95879

JSON: /api/v1/satellites/60543 · /tle

For live sub-satellite position, see the globe view (requires WebGL).

§ Visibility from observer

Set your observer location to see the next 7 days of passes ≥ 10°. The values pass through the URL so the page stays shareable.

No JS? Fill the form by hand. The geolocation button needs JavaScript.

§ Radio — SatNOGS DB

ModeDescriptionDownlinkUplink
FM Mode L - 3570kbps - Downlink 1.707 GHz
FM Mode S - Downlink 2.230 GHz

2 transmitters · refreshed weekly from db.satnogs.org